Location: DARK SKY Beskydy - Park tmavé oblohy, www.darkskybeskydy.cz
(49.4926°N, 18.5016°E)
Time: 10:58:27
(UTC+02:00)

BlueWalker 3 - Pass Details

Date: 22 June 2024
Orbit: 480 x 491 km, 53.2° (Epoch: 23 July)

Event Time Altitude Azimuth Distance (km) Brightness Sun altitude
Rises 03:25:49 0° 291° (WNW) 2,538 5.4 -9.1°
Reaches altitude 10° 03:28:12 10° 279° (W) 1,656 4.3 -8.9°
Maximum altitude 03:31:22 27° 221° (SW) 957 2.8 -8.5°
Drops below altitude 10° 03:34:33 10° 162° (SSE) 1,650 4.2 -8.2°
Sets 03:36:55 0° 150° (SSE) 2,527 5.3 -8.0°
